User: anonymous   Login
Location: Gro�wechsungen
(51.4926°N, 10.6901°E)
Time: 21:42:46
(UTC+00:00)
Language:

Cosmos 2082 Rocket - Orbit

View from above orbital plane
View from above orbital plane
View from above satellite
View from above satellite

Ground track
Ground track

The orbit data is extracted from the following two-line orbital elements,

1 20625U 90046B   21135.06165416 -.00000270  00000-0 -11577-3 0  9990
2 20625  71.0007  32.1596 0011982 100.0932 260.1542 14.14665339599762
Epoch (UTC): 15 May 2021 01:28:46
Eccentricity: 0.0011982
inclination: 71.0007°
perigee height: 835 km
apogee height: 852 km
right ascension of ascending node: 32.1596°
argument of perigee: 100.0932°
revolutions per day: 14.14665339
mean anomaly at epoch: 260.1542°
orbit number at epoch: 59976

The dashed part of the orbit path shows where the satellite is in the earth's shadow,  

DLR